ニート-リニア彗星

410P/NEAT-LINEAR (2004)

English version
Home page
Updated on February 17, 2021

---------------------------------------------------------------------

・ プロフィール

符号 410P/2005 CR16 = 2003 WR168
発見日 2003年11月19日、2005年2月2日
発見光度 19.4等、19.4等
発見者 Near-Earth-Asteroid Tracking Team (Jet Propulsion Laboratory), Lincoln Laboratory Near-Earth Asteroid Research project

・ 軌道要素

Epoch 2004 July 14.0 TT = JDT 2453200.5                                         
T 2004 June 25.94676 TT                                 Veres                   
q   3.2406345            (2000.0)            P               Q                  
n   0.05803161     Peri.  312.96230     -0.06191780     -0.99259193             
a   6.6073348      Node   140.22647     +0.95669027     -0.08887253             
e   0.5095398      Incl.    9.40416     +0.28444669     +0.08284284             
P  17.0                                                                         
From 144 observations 2003 Nov. 19-2020 Dec. 1, mean residual 0".5.             

・ 光度変化

        m1 = 12.0 + 5 logΔ + 10.0 log r

---------------------------------------------------------------------

軌道要素はM.P.E.C. 2020-X10に掲載されたものです。
光度グラフはComet for Windowsで作成したものです。

---------------------------------------------------------------------

Copyright(C) Seiichi Yoshida (comet@aerith.net). All rights reserved.